KK7N Weather Reports


time (UTC)temp
C
wind
direction
speed
KPH
gust
KPH
rain 1hr
cm
rain 24hr
cm
rain mn
cm
humidity
%
barometer
mb
20260509040044 17 0 0.0 0.0 0.00 0.00 0.00 61 1021.6
20260509034542 17 0 0.0 0.0 0.00 0.00 0.00 60 1021.4
20260509033045 17 0 0.0 3.2 0.00 0.00 0.00 58 1021.3
20260509031548 18 0 0.0 3.2 0.00 0.00 0.00 56 1021.1
20260509030042 18 0 0.0 3.2 0.00 0.00 0.00 55 1021.1
20260509024542 19 0 0.0 1.6 0.00 0.00 0.00 54 1020.9
20260509023053 20 0 0.0 4.8 0.00 0.00 0.00 52 1020.9
20260509021546 20 0 0.0 4.8 0.00 0.00 0.00 50 1020.9
20260509020043 20 0 0.0 9.7 0.00 0.00 0.00 48 1020.9
20260509014543 21 279 3.2 9.7 0.00 0.00 0.00 47 1020.9
20260509013042 21 0 1.6 14.5 0.00 0.00 0.00 47 1020.9
20260509011548 21 254 1.6 17.7 0.00 0.00 0.00 47 1021.0
20260509010047 21 296 3.2 16.1 0.00 0.00 0.00 46 1021.1
20260509004545 21 0 1.6 11.3 0.00 0.00 0.00 48 1021.2
20260509003044 20 294 1.6 17.7 0.00 0.00 0.00 49 1021.3
20260509001550 20 0 0.0 8.0 0.00 0.00 0.00 50 1021.4
20260509000047 20 286 4.8 14.5 0.00 0.00 0.00 47 1021.4
20260508234546 20 303 0.0 12.9 0.00 0.00 0.00 49 1021.3
20260508233048 20 279 3.2 6.4 0.00 0.00 0.00 49 1021.4
20260508231604 20 254 3.2 14.5 0.00 0.00 0.00 49 1021.3
20260508230059 20 218 3.2 14.5 0.00 0.00 0.00 48 1021.5
20260508224555 20 251 6.4 11.3 0.00 0.00 0.00 48 1021.5
20260508223048 20 296 8.0 16.1 0.00 0.00 0.00 48 1021.7
20260508221551 20 222 4.8 11.3 0.00 0.00 0.00 47 1021.6
20260508220049 20 220 4.8 11.3 0.00 0.00 0.00 47 1021.7
20260508214619 19 289 6.4 17.7 0.00 0.00 0.00 48 1021.7
20260508213051 19 259 8.0 17.7 0.00 0.00 0.00 45 1021.8
20260508211549 18 229 3.2 19.3 0.00 0.00 0.00 46 1021.8
20260508210052 18 232 3.2 16.1 0.00 0.00 0.00 50 1021.8
20260508204545 18 277 4.8 16.1 0.00 0.00 0.00 54 1021.8
20260508203105 17 255 6.4 17.7 0.00 0.00 0.00 51 1021.9
20260508201547 17 278 1.6 16.1 0.00 0.00 0.00 57 1022.1
20260508200044 16 279 6.4 12.9 0.00 0.00 0.00 57 1022.2
20260508194549 16 242 3.2 12.9 0.00 0.00 0.00 56 1022.2
20260508193051 16 236 4.8 14.5 0.00 0.00 0.00 56 1022.1
20260508191543 15 258 6.4 17.7 0.00 0.00 0.00 58 1022.4
20260508190042 15 225 6.4 16.1 0.00 0.00 0.00 60 1022.4
20260508184540 15 244 3.2 16.1 0.00 0.00 0.00 61 1022.4
20260508183044 15 298 4.8 14.5 0.00 0.00 0.00 60 1022.4
20260508181551 14 221 6.4 17.7 0.00 0.00 0.00 64 1022.2
20260508180043 14 255 6.4 16.1 0.00 0.00 0.00 65 1022.3
20260508174555 14 230 8.0 16.1 0.00 0.00 0.00 65 1022.1
20260508173049 13 268 6.4 14.5 0.00 0.00 0.00 68 1021.9
20260508171546 13 252 3.2 8.0 0.00 0.00 0.00 70 1021.7
20260508170044 12 0 1.6 12.9 0.00 0.00 0.00 75 1021.3
20260508164550 12 217 1.6 8.0 0.00 0.00 0.00 76 1021.4
20260508163042 11 0 1.6 9.7 0.00 0.00 0.00 76 1021.5
20260508161543 11 115 1.6 6.4 0.00 0.00 0.00 79 1021.1
20260508160043 11 0 1.6 12.9 0.00 0.00 0.00 77 1021.3
20260508154545 11 188 3.2 12.9 0.00 0.00 0.00 78 1021.2
20260508153043 10 211 3.2 9.7 0.00 0.00 0.00 78 1021.3
20260508151545 10 0 0.0 12.9 0.00 0.00 0.00 81 1021.4
20260508150039 10 222 1.6 11.3 0.00 0.00 0.00 80 1021.8
20260508144546 10 250 4.8 12.9 0.00 0.00 0.00 80 1021.7
20260508143053 10 198 4.8 11.3 0.00 0.00 0.00 81 1021.6
20260508141543 10 220 4.8 17.7 0.00 0.00 0.00 82 1021.3
20260508140043 8 0 1.6 9.7 0.00 0.00 0.00 87 1020.8
20260508134548 8 0 0.0 0.0 0.00 0.00 0.00 90 1020.4
20260508133048 8 0 0.0 0.0 0.00 0.00 0.00 89 1020.1
20260508131545 8 0 0.0 1.6 0.00 0.00 0.00 89 1019.7
20260508130049 8 0 0.0 0.0 0.00 0.00 0.00 89 1019.5
20260508124548 8 0 0.0 0.0 0.00 0.00 0.00 89 1019.2
20260508123047 8 0 0.0 0.0 0.00 0.00 0.00 89 1019.1
20260508121549 8 0 0.0 0.0 0.00 0.00 0.00 89 1018.8
20260508120045 8 0 0.0 0.0 0.00 0.00 0.00 89 1018.7
20260508114551 8 0 0.0 0.0 0.00 0.00 0.00 89 1018.6
20260508113051 8 0 0.0 0.0 0.00 0.00 0.00 88 1018.4
20260508111557 8 0 0.0 0.0 0.00 0.00 0.00 88 1018.2
20260508110047 8 0 0.0 0.0 0.00 0.00 0.00 88 1018.1
20260508104544 8 0 0.0 0.0 0.00 0.00 0.00 88 1018.0
20260508103045 8 0 0.0 0.0 0.00 0.00 0.00 87 1017.9
20260508101542 9 0 0.0 0.0 0.00 0.00 0.00 87 1017.8
20260508100047 9 0 0.0 0.0 0.00 0.00 0.00 86 1017.6
20260508094546 9 0 0.0 0.0 0.00 0.00 0.00 86 1017.6
20260508093051 9 0 0.0 0.0 0.00 0.00 0.00 86 1017.5
20260508091556 9 0 0.0 0.0 0.00 0.00 0.00 86 1017.4
20260508090045 10 0 0.0 0.0 0.00 0.00 0.00 85 1017.3
20260508084545 10 0 0.0 0.0 0.00 0.00 0.00 85 1017.2
20260508083049 10 0 0.0 0.0 0.00 0.00 0.00 84 1017.1
20260508081551 10 0 0.0 0.0 0.00 0.00 0.00 84 1017.0
20260508080044 10 0 0.0 0.0 0.00 0.00 0.00 83 1016.8
20260508074544 11 0 0.0 0.0 0.00 0.00 0.00 82 1016.8
20260508073048 11 0 0.0 0.0 0.00 0.00 0.00 82 1016.8
20260508071548 11 0 0.0 0.0 0.00 0.00 0.00 81 1016.8
20260508070055 11 0 0.0 0.0 0.00 0.00 0.00 79 1016.8
20260508064543 11 0 0.0 0.0 0.00 0.00 0.00 79 1016.8
20260508063049 12 0 0.0 1.6 0.00 0.00 0.00 78 1016.8
20260508061551 12 0 0.0 0.0 0.00 0.00 0.00 76 1016.8
20260508060049 12 0 0.0 0.0 0.00 0.00 0.00 74 1016.8
20260508054548 12 0 0.0 1.6 0.00 0.00 0.00 73 1016.7
20260508053058 12 271 0.0 3.2 0.00 0.00 0.00 74 1016.7
20260508051546 13 0 0.0 1.6 0.00 0.00 0.00 75 1016.6
20260508050045 13 0 0.0 0.0 0.00 0.00 0.00 74 1016.6
20260508044549 14 0 0.0 0.0 0.00 0.00 0.00 71 1016.5
20260508043040 15 0 0.0 0.0 0.00 0.00 0.00 71 1016.5
20260508041543 15 0 0.0 0.0 0.00 0.00 0.00 67 1016.4